Location: Newark
(35.8833°N, 14.5000°E)
Time: 07:38:17
(UTC+00:00)

Altair - Pass Details

Date: 21 November 2019
Orbit: 1502 x 1682 km, 47.2° (Epoch: 07 December)

Event Time Altitude Azimuth Distance (km) Brightness Sun altitude
Rises 07:22:30 0° 303° (WNW) 4,651 9.4 16.1°
Reaches altitude 10° 07:25:29 10° 304° (NW) 3,680 9.0 16.5°
Maximum altitude 07:34:49 89° 35° (NE) 1,553 7.9 18.0°
Drops below altitude 10° 07:44:28 10° 126° (SE) 3,798 11.8 19.4°
Sets 07:47:36 0° 127° (SE) 4,806 11.7 19.8°
